Location: *
(51.8167°N, 12.5000°E)
Time: 15:02:14
(UTC+00:00)

MetOp-B - Pass Details

Date: 16 September 2019
Orbit: 819 x 821 km, 98.7° (Epoch: 16 October)

Event Time Altitude Azimuth Distance (km) Brightness Sun altitude
Exits shadow 19:54:01 44° 165° (SSE) 1,132 4.5 -22.4°
Maximum altitude 19:55:50 88° 255° (WSW) 829 4.1 -22.6°
Drops below altitude 10° 20:01:14 10° 344° (NNW) 2,429 7.3 -23.3°
Sets 20:03:35 0° 345° (NNW) 3,366 8.2 -23.6°
